GFSSE_925_spd_000.txt.gz
Wind_Speed
23 21 17 16 18 19 17 14 12 12 13 12 11 11 12 13 13 13 14 15 11 11 11 10 9 8 5 5 6 10 11 13 15 17 17 17 16 18 19 20 16 16 16
28 22 17 17 18 18 16 14 11 10 12 13 12 11 12 12 12 11 12 13 12 10 10 10 9 8 5 7 9 12 12 16 18 17 17 16 15 14 12 11 16 16 16
20 20 17 17 17 16 14 11 10 11 13 14 13 12 11 11 10 9 11 9 10 8 9 9 9 8 6 8 11 10 13 17 18 17 18 15 14 13 13 15 15 17 16
19 18 17 18 17 15 13 11 11 11 12 14 13 12 12 9 9 10 8 8 7 6 7 8 8 7 7 8 11 9 13 16 15 14 16 15 13 12 13 14 16 17 16
20 18 17 17 17 15 13 11 11 12 13 14 13 11 10 10 8 10 9 6 5 5 6 7 7 7 7 8 10 10 13 14 16 13 10 15 14 12 13 13 15 16 16
20 21 16 15 16 16 15 13 12 13 14 13 13 12 10 9 9 8 7 6 4 4 5 7 8 9 9 9 10 9 14 14 12 8 16 14 17 14 14 15 16 15 15
27 22 17 14 16 14 14 13 14 13 14 14 13 12 11 9 9 8 7 6 4 4 5 6 8 10 9 10 10 11 14 13 8 14 16 13 13 15 14 14 15 16 15
23 19 17 16 14 11 12 13 13 13 14 14 13 12 11 10 9 8 7 6 5 5 5 6 8 9 10 11 11 12 15 14 9 11 13 13 16 17 15 14 14 14 15
20 21 18 16 14 11 12 13 14 14 14 15 14 12 11 9 9 9 9 7 5 7 6 7 9 9 10 9 11 14 17 15 8 13 14 15 16 17 15 14 14 14 13
20 18 18 15 14 13 13 13 14 14 15 15 15 14 12 11 10 9 8 8 7 7 7 8 9 10 10 11 12 13 16 14 10 9 16 15 18 16 15 16 15 14 13
15 18 16 16 16 16 16 17 17 16 16 15 14 14 13 12 11 11 10 9 8 8 8 9 10 10 11 12 12 14 15 15 8 3 20 15 17 17 16 15 15 14 14
10 12 14 15 17 17 17 16 16 19 21 20 18 16 14 12 11 9 8 9 10 8 9 9 10 10 10 10 13 14 16 12 12 6 13 16 15 16 16 15 14 16 14
11 15 16 16 17 15 11 14 17 17 19 21 20 18 15 8 8 9 9 9 9 8 8 10 12 13 12 14 15 16 17 16 10 10 14 15 15 15 15 15 16 15 14
20 17 16 16 14 9 10 3 12 18 18 21 22 18 19 18 12 10 11 8 6 10 11 12 11 10 11 14 16 16 18 16 14 13 14 14 15 15 15 14 15 15 15
13 16 15 11 10 11 16 29 30 18 20 19 19 18 16 12 10 13 15 12 9 10 9 10 11 11 11 13 15 17 18 18 21 14 16 16 16 17 17 16 15 15 15
15 14 13 12 10 11 12 17 18 20 19 12 15 15 21 19 12 13 15 16 10 9 11 10 10 9 10 11 11 12 13 13 12 16 17 16 17 17 18 16 16 16 15
18 16 15 14 12 12 12 12 12 12 10 12 18 10 15 18 19 16 14 16 12 10 10 11 9 9 10 8 12 10 12 13 13 16 14 16 17 18 20 19 17 15 16
19 19 18 14 14 12 11 11 9 10 11 10 11 16 19 18 15 16 15 14 16 11 10 13 12 9 10 9 9 11 13 13 11 12 15 11 16 20 21 21 18 17 18
13 18 16 14 16 16 12 10 10 10 12 12 14 20 20 17 17 19 17 16 16 15 11 14 15 12 11 11 10 10 9 10 12 11 13 10 16 15 17 19 16 16 19
16 14 13 12 12 12 11 12 11 11 13 12 13 14 20 20 20 20 19 18 17 17 16 15 15 14 11 13 13 10 12 11 11 14 13 9 11 14 17 20 19 17 20
20 16 13 12 12 13 13 14 13 14 13 14 12 9 15 19 19 22 21 19 16 19 20 17 16 15 14 10 9 7 9 9 11 12 14 15 11 14 16 22 15 13 17
20 14 11 11 12 12 11 13 13 11 13 16 16 18 19 15 20 20 23 20 20 19 19 20 19 17 14 11 5 2 2 7 16 14 13 13 13 16 17 20 20 24 28
19 14 14 13 11 11 10 9 11 12 15 16 19 18 16 20 20 21 21 25 21 20 21 21 20 20 16 13 14 6 2 3 1 8 13 15 12 15 17 17 18 21 23
11 12 13 9 9 6 5 7 8 12 15 15 16 17 18 19 19 20 21 24 24 21 23 21 23 23 16 13 14 20 15 4 1 2 3 10 11 14 15 16 17 18 19
10 17 14 11 4 2 2 6 6 8 14 16 17 16 16 17 17 20 22 24 24 24 24 25 22 23 23 24 16 9 16 11 10 5 1 2 9 11 14 15 13 12 13
18 18 12 8 6 1 2 6 7 9 14 13 15 11 14 16 16 18 21 23 24 24 24 24 27 24 25 25 15 15 13 8 3 3 1 4 7 10 16 16 15 14 14

GFSSE_925_spd_003.txt.gz
Wind_Speed
21 23 21 21 20 21 20 17 16 16 16 16 16 16 17 18 17 17 16 15 14 11 12 11 9 11 9 7 11 11 13 16 17 18 19 20 21 20 20 20 20 20 19
26 22 20 21 22 21 18 16 15 15 15 14 15 16 15 15 16 17 15 14 14 12 11 11 10 9 8 9 10 13 14 18 19 18 18 17 17 15 16 17 18 20 19
28 23 21 21 21 19 17 14 14 14 14 13 13 14 15 13 13 16 11 11 11 11 10 10 10 8 9 10 13 12 14 18 18 18 18 18 16 14 17 15 17 19 19
25 22 22 21 20 18 15 14 14 15 15 13 12 12 13 12 12 12 12 10 9 8 9 9 9 8 7 8 11 12 15 16 16 17 15 16 13 15 15 15 17 17 18
23 21 23 21 19 17 16 15 15 15 15 14 12 12 11 11 11 12 10 10 9 7 8 7 7 7 7 7 9 12 14 14 15 17 15 13 15 14 14 16 16 17 16
23 20 23 21 19 18 17 17 17 16 16 15 14 13 11 11 10 11 9 9 9 8 7 8 7 7 7 7 7 11 12 14 14 9 8 15 13 14 15 15 17 15 16
22 21 19 21 20 18 16 16 16 16 16 15 14 13 12 11 10 10 9 7 8 8 8 8 8 9 9 7 7 11 12 10 8 9 17 15 13 17 16 16 16 15 15
26 21 19 20 18 18 16 15 15 16 17 16 14 13 12 11 9 9 9 7 6 6 8 8 9 10 9 10 9 11 11 11 5 7 14 12 14 17 17 16 17 15 14
20 20 20 19 16 15 15 15 16 17 17 17 16 13 12 10 10 9 8 6 5 5 6 7 10 9 10 11 11 12 13 12 7 4 13 14 16 16 16 16 16 16 16
20 19 20 20 17 14 15 15 14 16 17 15 14 13 12 10 10 9 9 7 4 6 6 7 9 10 10 9 10 12 15 13 10 6 14 15 16 16 15 15 15 15 15
23 22 20 20 17 16 16 16 17 16 15 14 12 11 10 10 11 10 9 7 5 5 7 8 8 9 11 12 12 12 13 16 9 3 16 15 17 15 15 15 15 14 13
20 19 22 21 19 17 16 15 15 14 15 14 14 13 13 10 9 9 8 7 6 6 7 8 9 9 12 11 12 13 14 15 8 7 17 14 13 15 14 16 14 14 13
22 24 22 20 21 18 15 15 14 13 13 13 13 14 12 11 13 10 12 9 8 8 7 8 10 11 12 11 10 14 17 15 9 11 18 16 16 15 16 15 14 15 14
22 23 23 24 21 18 17 17 17 13 13 13 15 16 14 15 10 10 10 9 6 8 7 9 11 11 12 12 13 12 15 18 11 9 16 16 14 15 16 16 16 15 15
24 26 26 22 21 21 20 19 19 16 12 12 12 15 17 19 20 13 11 11 9 8 8 11 11 9 11 12 14 15 14 17 14 17 16 16 13 15 17 16 16 16 16
25 26 25 19 18 19 19 15 18 16 12 13 14 15 14 19 20 15 15 15 15 11 11 9 10 10 9 11 11 14 18 17 17 20 21 18 19 18 18 18 17 17 17
26 28 28 20 17 17 14 10 13 13 15 19 19 15 14 19 20 17 16 14 19 15 11 10 10 10 9 9 9 10 10 10 15 16 18 16 19 21 22 21 19 18 16
23 23 22 21 20 20 19 15 14 14 18 18 15 14 17 19 17 19 17 16 17 16 14 12 12 10 11 9 8 10 9 11 8 10 15 18 19 24 25 23 22 19 19
27 26 23 23 22 20 18 17 15 17 14 16 15 15 19 22 21 17 18 17 16 21 15 14 13 11 11 8 7 8 9 7 10 11 14 17 19 20 22 24 25 22 20
27 23 20 19 20 18 15 13 10 10 14 14 16 16 18 22 21 18 17 18 17 17 19 15 15 15 10 7 7 5 7 8 9 13 14 16 15 18 18 19 24 23 21
29 24 20 17 16 16 14 13 14 14 15 14 12 12 14 18 19 20 19 19 19 21 22 19 16 14 14 7 7 4 5 9 10 12 15 15 16 17 21 22 25 27 21
30 25 22 19 16 12 10 9 10 9 13 17 17 16 15 14 19 20 21 21 22 21 21 21 19 16 13 13 6 5 1 4 13 15 13 17 19 20 21 20 26 27 25
30 26 22 18 16 12 9 7 9 11 11 16 19 17 19 20 18 20 22 23 24 24 25 23 23 21 16 14 13 6 2 2 1 6 17 15 17 17 23 24 24 28 27
29 24 16 16 12 9 5 4 7 10 10 14 15 17 17 20 19 18 20 23 24 21 22 24 25 25 19 15 11 14 9 2 2 4 7 13 16 16 20 23 22 24 25
22 19 15 10 12 9 5 1 4 7 12 16 16 17 18 19 19 18 18 22 24 24 23 22 24 26 24 21 15 8 7 9 9 7 4 4 12 17 19 21 20 19 20
22 27 13 16 14 10 6 4 5 6 11 13 16 20 14 13 14 16 17 21 22 22 23 25 25 25 25 23 19 13 8 3 4 10 5 6 7 11 17 19 18 19 21

GFSSE_925_spd_006.txt.gz
Wind_Speed
24 24 21 20 21 21 22 22 21 21 20 21 21 22 22 21 22 22 20 18 16 16 14 13 13 11 12 12 12 14 13 18 19 20 19 19 20 20 18 17 18 20 19
30 25 23 22 22 21 21 21 21 20 20 19 19 19 20 21 21 19 17 16 14 14 13 12 12 12 11 13 13 14 15 18 20 20 19 18 18 18 16 16 16 19 19
30 26 25 24 23 20 20 20 20 20 19 19 17 17 17 19 19 17 16 15 14 13 13 12 11 12 13 14 13 15 16 18 19 21 19 18 16 14 17 17 16 18 18
32 27 26 25 22 20 19 19 20 19 18 18 17 17 16 16 16 15 14 13 11 12 11 10 10 11 14 14 14 15 18 18 16 18 19 16 15 17 16 17 17 17 17
31 28 27 25 23 20 18 19 20 20 19 18 16 16 15 16 15 13 11 11 10 10 11 9 8 10 12 14 14 16 16 17 16 15 16 14 17 17 15 16 17 16 16
28 28 27 25 22 20 20 20 21 20 19 17 15 14 14 14 14 12 10 9 8 8 9 8 7 9 11 13 12 14 15 16 15 15 8 11 14 15 16 16 17 15 17
26 28 26 25 21 20 20 20 20 20 19 18 15 13 12 12 12 11 10 8 8 7 7 9 8 8 10 13 13 13 14 17 13 7 12 12 13 16 16 16 16 15 16
27 26 26 24 21 20 20 19 19 19 19 17 15 14 12 12 10 10 9 7 7 7 7 8 9 9 10 11 14 13 14 13 10 8 16 14 15 16 16 16 15 15 15
26 26 27 25 23 20 19 19 19 18 18 16 15 14 12 11 10 9 9 8 6 6 7 9 10 9 10 10 12 15 14 11 11 10 16 16 16 17 17 16 15 14 15
25 25 27 26 25 22 19 18 17 16 16 15 14 13 13 11 10 9 8 6 5 6 7 8 10 9 9 9 11 13 16 13 10 7 16 17 18 18 17 17 15 16 14
25 25 26 26 23 22 20 17 16 16 15 15 14 14 12 12 11 10 8 7 5 6 7 7 9 10 10 10 10 13 16 16 12 8 15 17 17 18 18 17 15 16 16
25 25 26 25 24 22 21 20 17 16 16 16 16 14 15 13 12 11 9 8 9 6 7 8 9 8 10 10 10 12 15 16 11 5 16 17 17 18 17 18 17 16 15
25 25 26 25 23 22 22 20 20 19 19 19 16 15 12 12 11 12 11 9 8 7 7 9 10 10 11 11 10 11 13 13 10 9 14 16 17 16 18 18 18 16 15
30 28 27 25 22 19 19 20 20 20 18 18 17 15 16 14 12 12 11 9 8 8 8 9 10 11 11 12 10 9 12 15 14 16 16 19 18 17 19 19 18 17 17
27 28 28 26 24 22 21 20 20 18 17 16 17 18 19 17 15 15 12 10 9 8 7 9 10 13 11 13 13 13 12 15 17 14 13 21 20 19 18 19 19 19 19
25 28 30 29 26 24 22 21 21 19 17 17 15 18 20 20 18 20 16 12 11 12 10 11 11 14 13 16 12 14 12 12 19 17 15 20 21 20 19 19 19 19 19
29 28 29 27 25 22 21 19 19 22 20 17 16 15 14 18 19 18 18 16 13 15 11 12 12 11 13 11 12 13 13 17 16 16 17 28 25 20 21 21 20 19 19
30 30 29 26 23 21 20 19 15 16 18 19 18 19 15 17 15 17 18 18 16 15 17 16 14 13 12 11 11 12 12 12 18 17 24 29 24 22 23 22 22 21 20
33 31 30 26 24 22 18 17 14 15 16 15 16 16 14 16 17 18 20 19 17 18 19 18 17 15 14 13 9 10 13 12 10 15 23 29 22 20 23 25 25 24 22
32 32 29 26 24 21 18 15 15 14 15 13 15 15 14 15 18 20 20 18 18 19 20 18 17 16 13 11 9 9 11 11 15 17 18 18 20 21 22 25 25 26 24
34 34 32 26 22 19 19 15 13 12 13 15 17 17 18 19 19 20 20 19 19 21 22 22 19 18 17 11 10 8 8 11 12 12 16 18 19 19 20 23 23 27 26
24 37 30 25 21 19 16 12 7 9 10 14 17 18 17 14 17 19 21 22 22 23 24 23 22 19 17 16 7 4 1 4 12 12 12 15 17 19 20 21 24 24 27
24 17 32 22 18 15 12 9 7 7 9 13 14 14 17 18 15 16 21 22 23 24 26 26 27 23 19 18 15 5 2 4 2 3 12 15 15 19 21 23 25 22 26
10 14 7 12 15 14 10 7 5 5 7 9 13 14 15 15 15 15 17 20 21 23 25 26 25 27 22 17 20 14 4 2 2 1 2 2 9 16 20 21 25 24 25
34 35 18 18 16 10 8 5 4 2 5 9 11 12 13 15 17 18 18 17 21 22 23 26 26 27 24 21 19 11 11 6 6 3 2 3 8 13 19 22 23 24 24
19 23 16 20 15 9 9 5 4 5 10 9 10 10 12 7 10 14 15 15 19 21 23 23 24 24 25 25 22 14 12 7 6 4 2 2 8 16 17 20 21 23 22

GFSSE_925_spd_009.txt.gz
Wind_Speed
24 24 24 27 27 26 25 24 23 22 23 24 23 22 23 22 21 21 20 19 17 14 12 10 11 10 10 12 16 15 18 18 18 19 18 18 18 18 18 17 18 19 17
30 27 25 25 26 26 26 25 25 23 22 22 22 23 22 22 21 19 19 16 15 13 12 10 9 11 11 12 13 16 19 19 19 18 18 18 18 17 16 17 16 17 16
32 28 26 26 26 26 26 26 25 25 23 22 21 22 21 20 20 18 16 14 13 12 12 10 8 10 12 13 14 16 18 20 19 19 18 19 18 16 16 16 17 16 16
34 31 28 28 27 26 26 26 25 24 24 22 21 20 21 20 19 17 16 14 14 12 11 11 9 11 13 15 16 16 18 18 18 17 16 17 14 16 16 16 17 16 15
33 31 30 28 26 25 25 24 24 24 23 21 20 19 17 17 16 16 14 13 13 12 10 10 9 10 13 14 18 17 18 17 16 18 14 14 17 15 16 16 15 14 15
31 30 29 27 25 23 23 24 23 22 22 20 18 18 17 15 14 14 12 11 11 10 9 8 9 10 11 14 16 17 17 16 16 15 12 13 16 15 15 16 15 14 14
29 29 29 27 24 22 22 22 22 21 19 18 17 16 16 14 12 12 11 10 8 9 9 8 7 9 10 11 15 17 16 17 15 12 7 11 13 14 15 15 14 14 14
30 29 28 26 24 22 21 22 22 21 19 17 16 15 14 14 13 11 10 9 7 6 7 8 9 8 11 10 13 15 17 15 10 6 13 12 13 14 15 15 13 14 13
26 27 27 25 24 22 22 22 22 22 20 18 16 15 14 13 12 11 10 8 7 7 6 6 9 9 11 11 12 15 17 13 9 9 14 12 14 15 15 14 13 13 13
22 26 28 26 24 23 22 22 22 22 21 19 17 15 14 12 11 12 11 9 7 6 6 6 8 8 10 11 12 13 14 12 11 11 15 14 14 16 16 15 14 13 14
20 23 27 26 25 22 21 21 20 20 20 18 17 15 13 12 12 11 11 9 7 7 7 7 8 7 8 11 12 13 14 14 11 11 15 16 15 17 16 16 15 14 13
20 21 26 28 26 24 22 20 20 19 19 19 17 16 15 14 13 12 10 9 8 6 7 7 9 9 10 10 10 12 15 16 13 10 16 17 15 17 17 16 16 17 15
27 25 26 26 25 24 23 22 21 20 20 19 18 18 16 14 14 14 12 11 9 9 8 9 9 10 9 10 10 11 14 17 15 11 17 17 18 18 18 18 18 18 17
24 24 24 24 22 21 23 22 21 22 21 20 20 18 17 17 16 15 14 12 10 10 10 11 11 10 10 10 10 10 14 17 18 14 16 19 19 19 17 20 20 18 18
25 24 25 24 24 23 23 22 22 20 19 19 19 19 18 19 18 17 18 16 13 11 11 10 10 11 11 11 13 13 14 17 19 19 17 22 21 20 20 20 20 19 19
26 26 25 25 24 23 22 23 23 21 20 20 20 19 19 19 18 18 19 18 14 12 11 11 10 11 12 12 15 14 14 15 22 23 20 20 22 20 21 21 20 20 21
28 27 28 27 25 24 22 21 21 21 20 20 20 19 20 21 20 19 19 18 15 12 13 13 12 11 13 13 18 14 14 15 20 23 20 17 19 21 22 22 20 21 21
25 28 27 27 26 25 23 21 20 21 21 20 20 19 19 19 19 20 23 23 20 16 16 16 13 13 12 13 14 14 14 14 19 23 23 20 21 25 25 22 23 22 22
29 27 26 25 25 23 21 19 19 19 21 21 21 21 19 19 18 19 20 21 19 18 18 19 18 16 15 13 13 12 15 14 16 23 24 20 27 27 27 25 25 25 24
24 26 28 25 24 22 19 19 19 18 19 20 22 23 21 20 19 19 20 20 19 19 20 21 21 18 16 15 15 13 14 12 14 19 20 18 23 28 25 23 25 26 25
19 18 9 24 21 19 19 19 16 20 20 20 19 19 19 20 19 19 21 22 20 20 21 22 21 19 18 13 14 10 10 12 14 20 18 20 21 22 24 22 25 29 28
18 20 16 25 22 21 18 19 15 15 16 18 18 18 17 17 18 21 22 22 22 21 21 23 23 18 16 15 7 3 1 2 12 14 15 18 20 20 22 22 22 25 25
14 20 13 37 24 24 16 14 11 9 13 14 16 14 14 16 20 17 19 20 22 22 24 24 24 24 19 17 19 4 2 4 3 9 16 16 19 22 23 23 22 23 26
21 14 1 27 25 19 14 7 7 10 13 18 15 14 15 14 13 13 16 19 21 23 25 25 26 26 22 18 19 16 3 3 3 0 5 14 19 20 21 22 23 23 25
17 20 22 24 24 20 6 6 8 8 12 17 17 15 14 14 14 15 16 17 18 21 22 24 25 27 26 24 21 18 15 4 3 2 2 4 10 18 19 19 19 19 20
15 12 24 24 20 10 7 6 5 4 9 11 9 8 11 9 8 11 14 17 17 18 20 23 24 25 25 27 26 20 12 7 7 4 2 5 6 10 14 11 12 15 16

GFSSE_925_spd_015.txt.gz
Wind_Speed
18 18 22 25 23 21 19 19 19 19 20 18 19 19 19 19 19 17 16 14 14 12 9 9 8 7 9 9 10 8 14 15 15 15 16 15 15 15 16 14 15 15 16
23 21 25 26 23 22 20 19 19 19 19 19 18 18 16 17 16 15 15 14 12 10 8 8 8 8 10 9 11 14 15 16 15 14 15 14 14 15 15 14 13 15 16
24 22 22 25 23 22 21 19 18 18 18 18 17 17 16 14 14 14 12 13 11 9 7 6 8 8 9 12 13 16 15 15 16 13 14 12 11 14 15 13 13 14 14
26 24 23 24 22 21 20 19 18 17 17 17 17 15 14 12 12 12 11 10 10 8 7 6 6 8 10 12 14 15 15 15 15 14 11 11 11 12 14 14 13 13 14
24 23 21 22 21 19 19 18 18 16 16 16 15 15 14 12 9 9 9 9 8 9 8 7 7 8 9 12 13 15 15 15 14 13 11 10 10 11 14 13 13 13 13
21 21 23 23 20 19 18 18 17 16 15 15 14 14 13 12 11 9 9 9 9 9 8 7 9 9 10 13 15 16 15 14 13 11 10 10 9 12 13 12 13 12 13
21 20 22 24 21 20 19 18 15 15 14 13 13 14 13 11 11 10 8 8 8 8 7 7 9 10 12 13 15 17 15 13 12 10 10 11 9 13 14 12 13 13 11
23 21 20 22 21 20 20 18 17 16 14 13 12 13 13 12 11 9 10 7 7 8 9 9 9 11 12 15 15 16 16 13 12 10 10 10 11 13 13 13 12 12 13
19 20 19 18 18 19 18 18 16 15 15 13 13 13 13 12 10 10 9 8 7 7 8 9 11 11 12 15 15 15 17 14 11 8 9 10 14 14 14 13 13 13 13
17 18 19 18 17 15 15 18 18 16 15 14 13 12 12 11 11 9 8 7 7 6 7 9 11 12 14 14 15 15 16 14 11 9 11 11 15 15 15 13 14 13 13
14 16 18 19 18 17 16 17 17 17 16 15 13 12 11 10 10 9 10 9 6 6 6 8 10 10 11 12 15 16 17 12 10 10 12 13 15 16 16 15 14 15 14
16 16 16 17 17 18 15 16 16 15 17 16 15 13 11 11 10 10 10 9 7 6 6 7 8 9 10 12 12 16 17 13 11 10 13 14 15 16 17 16 14 15 15
16 17 19 17 19 16 14 15 14 15 18 18 16 16 14 12 10 10 9 8 8 7 6 6 7 10 11 13 14 15 19 19 14 12 11 15 16 15 17 16 15 14 16
18 17 16 19 18 17 14 15 16 16 18 19 19 16 12 10 14 12 11 10 9 8 7 7 7 10 11 13 14 17 19 19 17 15 13 15 19 18 17 16 16 16 15
17 16 15 16 18 19 16 15 15 16 17 17 17 15 16 15 26 18 14 11 9 8 8 8 8 9 11 12 15 16 18 19 21 18 15 14 20 20 18 18 17 18 18
14 14 12 14 16 17 17 17 16 15 14 16 15 13 15 16 23 23 15 15 14 13 10 9 8 8 10 12 13 16 18 15 20 22 17 15 20 21 21 19 18 20 19
13 12 12 13 13 15 15 12 13 13 14 14 15 14 14 18 21 18 16 14 14 16 15 11 10 9 9 10 14 16 17 17 16 20 18 16 16 20 22 20 22 21 19
10 9 9 11 12 12 13 12 12 12 13 13 14 14 16 16 18 17 18 14 13 15 16 13 12 11 11 11 12 16 19 17 19 20 18 17 17 15 19 23 22 21 20
11 9 2 5 9 10 12 10 10 12 14 15 15 17 18 17 17 18 16 17 18 14 14 14 16 16 12 11 11 13 18 18 19 18 21 22 19 19 16 17 23 21 20
17 11 9 7 6 4 7 7 10 12 14 14 15 18 18 19 19 19 19 19 18 18 18 18 17 15 14 12 11 12 13 15 16 17 16 16 16 18 18 17 17 21 22
24 24 19 14 7 4 4 1 2 6 8 12 14 15 16 17 19 19 18 23 23 22 19 18 18 17 16 12 9 11 14 15 14 13 12 15 16 17 17 18 21 19 19
24 22 20 20 10 3 5 6 4 5 8 9 9 13 15 18 20 21 23 20 22 24 21 20 18 17 16 13 9 6 4 7 10 12 12 12 14 15 16 15 17 19 19
6 6 8 12 16 3 7 6 8 6 6 6 7 8 8 11 12 14 21 27 19 24 24 23 21 19 17 14 14 7 3 5 4 7 13 13 14 15 15 14 16 19 19
6 3 8 10 11 6 2 4 2 1 5 5 9 10 10 10 12 14 15 16 22 23 24 23 24 23 19 16 11 14 8 2 2 2 6 10 12 12 13 13 14 17 16
3 4 9 5 4 2 2 2 1 1 3 7 9 10 8 7 9 11 14 14 15 16 18 25 24 22 20 17 15 10 12 10 5 2 1 4 8 12 14 14 14 14 15
6 7 11 11 11 5 2 4 2 2 5 7 9 9 9 8 7 6 10 14 14 13 16 23 24 23 21 17 15 14 11 5 9 6 4 2 3 4 7 10 12 14 14

GFSSE_925_spd_021.txt.gz
Wind_Speed
21 21 18 18 15 15 15 15 16 15 13 11 12 13 12 12 13 11 10 12 11 11 9 8 7 7 5 7 6 9 11 12 13 13 13 13 13 12 13 12 14 12 13
21 19 19 18 15 15 15 15 15 15 13 12 13 13 13 13 11 10 11 12 9 9 8 6 7 7 7 7 7 10 11 13 12 13 13 12 12 11 9 6 13 13 12
22 20 20 20 17 15 14 14 15 15 13 13 13 13 14 12 10 10 10 10 8 7 6 6 6 7 9 8 8 12 11 12 10 12 16 12 9 11 8 11 11 12 12
22 22 21 20 17 15 14 13 13 13 13 13 13 12 12 11 10 10 9 9 7 6 5 6 6 6 8 8 10 12 11 11 11 11 14 12 12 10 9 9 10 12 12
21 22 21 21 18 16 15 14 13 13 13 13 13 12 11 10 9 9 8 7 7 5 5 6 5 7 7 8 10 11 11 10 10 6 4 12 11 10 10 10 10 11 10
20 22 20 19 16 15 14 14 14 13 13 12 12 11 10 9 8 6 5 4 6 5 5 6 5 6 7 9 10 11 11 11 10 4 5 5 5 13 11 10 10 9 10
17 20 18 18 16 15 14 13 13 13 13 12 11 10 10 8 7 6 5 5 4 3 4 4 5 5 7 9 10 11 10 9 7 11 4 8 12 10 11 10 10 9 9
14 17 17 16 14 13 13 13 12 12 12 12 12 11 9 7 6 5 5 4 4 3 3 2 3 4 7 8 10 10 9 9 8 5 6 9 10 8 10 10 9 9 8
13 16 14 13 14 13 12 12 12 11 11 11 11 11 10 7 6 5 5 4 4 3 4 4 5 6 6 9 10 10 9 10 10 2 7 8 8 7 10 10 8 9 9
12 16 15 13 12 12 12 12 10 11 10 10 9 8 9 10 7 6 3 3 4 4 4 6 6 7 7 10 10 10 10 8 9 7 7 6 6 8 11 11 9 9 9
14 13 17 15 13 13 12 12 11 10 9 8 7 8 7 7 7 8 8 3 3 3 4 7 8 8 10 8 10 10 10 9 9 10 9 11 7 8 12 11 10 9 10
14 15 16 13 13 13 12 12 12 11 11 10 9 9 9 2 6 2 5 3 6 6 7 9 10 11 9 8 10 10 10 10 8 8 4 5 6 10 13 13 11 11 10
15 15 14 14 13 12 13 12 13 12 13 10 10 10 8 6 4 6 1 4 5 10 11 12 12 11 12 9 9 10 11 11 11 14 14 10 7 10 13 13 12 10 11
16 14 15 14 13 14 9 12 12 13 14 14 12 11 9 6 7 8 6 5 8 10 11 12 17 12 13 11 10 10 13 11 11 11 10 9 8 11 14 14 13 10 10
14 12 13 16 13 13 12 8 10 18 17 17 11 14 12 11 10 8 7 9 13 11 10 21 17 13 12 11 11 12 12 12 14 13 10 11 11 12 14 15 15 14 13
13 12 12 12 13 12 10 9 8 12 7 2 12 16 14 13 14 15 13 13 16 10 8 25 14 13 11 12 14 12 13 14 13 14 12 15 16 15 16 19 18 19 18
15 14 13 12 13 13 11 9 8 9 9 11 12 10 12 13 15 16 14 14 17 18 14 17 18 9 11 12 11 12 12 15 15 15 16 14 17 19 18 22 23 24 22
15 15 14 13 13 15 14 10 9 8 10 12 10 10 15 15 15 14 14 14 14 11 13 25 22 10 10 10 14 16 12 14 14 15 16 15 16 19 20 24 28 27 26
15 15 15 12 12 13 12 11 8 7 8 10 11 14 14 14 17 17 17 14 14 16 19 22 21 14 14 13 14 13 15 13 14 15 16 17 19 17 20 23 26 26 27
16 15 15 12 10 10 10 10 8 9 7 10 12 10 9 12 15 18 18 18 18 19 22 24 23 21 18 19 16 16 15 18 14 15 16 19 21 21 20 18 22 22 29
10 13 12 9 8 6 5 4 8 7 9 13 15 11 10 13 16 16 19 16 18 21 22 17 19 17 18 14 8 12 19 18 18 15 15 16 18 18 20 24 16 18 27
12 13 10 8 11 12 9 7 6 5 7 7 10 8 10 12 14 15 18 18 18 20 21 21 15 13 16 14 14 18 10 17 22 20 17 17 16 17 18 20 18 17 21
13 14 11 9 13 12 10 6 6 5 6 11 9 7 5 9 12 14 15 16 16 19 21 20 20 18 16 16 19 13 5 7 8 10 13 14 14 15 16 16 17 15 18
12 11 9 14 11 10 10 9 7 5 9 4 5 5 9 8 9 11 14 15 17 16 18 19 20 20 19 16 11 17 17 13 2 3 5 14 12 13 13 13 14 15 16
10 9 10 15 12 8 6 8 5 7 1 2 5 7 8 9 7 8 11 12 14 15 15 16 16 19 18 16 14 12 15 17 11 6 4 3 5 10 17 18 14 20 20
12 11 13 17 12 8 6 5 3 1 0 3 5 7 11 12 10 9 10 10 11 12 13 14 16 16 16 15 17 14 13 11 11 12 5 4 5 5 9 10 12 18 13

GFSSE_925_spd_024.txt.gz
Wind_Speed
24 23 20 17 17 17 17 17 16 14 12 13 14 13 14 14 12 12 11 12 10 9 7 7 6 5 6 7 8 9 10 12 13 14 13 14 16 17 14 13 15 15 15
28 22 22 18 17 17 17 16 15 13 13 13 14 14 14 14 12 11 11 10 11 8 6 7 6 5 6 7 8 9 10 11 12 13 14 13 13 12 10 9 17 15 14
26 23 21 19 18 17 16 15 15 14 13 13 13 14 14 12 11 11 12 9 9 8 6 5 5 6 6 6 9 9 9 10 11 12 15 13 13 11 14 15 13 15 14
24 23 20 20 18 16 15 14 14 13 13 13 13 13 12 11 10 11 10 9 8 7 6 5 6 7 6 8 10 10 8 9 10 11 11 11 14 11 12 12 13 13 13
23 21 20 18 16 15 14 13 13 12 12 12 12 12 11 10 10 9 8 8 7 6 6 6 7 8 8 10 11 11 10 9 9 6 10 11 15 11 10 11 12 12 12
24 22 22 18 15 14 14 13 12 12 12 12 11 11 10 10 10 9 8 7 6 6 6 6 7 8 9 11 13 11 11 9 8 6 10 15 14 12 12 11 11 10 11
28 23 19 16 15 14 13 13 12 12 11 11 10 10 10 9 9 8 8 7 7 7 6 7 7 7 10 11 12 12 11 10 6 3 6 11 10 11 13 12 10 11 10
26 23 21 15 13 12 11 12 11 11 11 10 10 10 10 9 8 7 7 7 7 7 6 6 6 7 10 11 13 12 12 11 3 5 8 8 11 11 12 10 10 9 10
26 23 19 15 12 12 11 11 12 11 10 11 10 8 7 8 8 8 7 7 7 6 6 6 6 6 9 11 13 13 11 9 5 3 6 15 12 11 11 10 9 9 9
25 23 21 16 13 12 11 11 10 11 10 9 9 9 9 9 10 9 7 7 6 6 6 6 6 6 8 10 11 11 11 9 8 3 6 11 9 9 10 11 10 10 9
16 19 20 21 17 15 13 11 10 9 9 8 8 9 10 11 10 9 7 11 6 6 6 7 6 8 8 9 10 10 10 8 5 6 0 11 5 8 11 12 10 10 10
14 21 18 17 16 15 14 14 12 11 9 8 9 10 8 9 13 8 15 9 7 7 7 7 8 10 10 8 11 13 12 9 9 5 11 10 9 9 12 13 11 10 10
12 23 19 17 17 13 13 15 17 16 14 10 9 10 11 9 7 8 10 8 5 6 6 7 8 11 11 10 11 14 13 11 7 11 11 6 13 11 12 14 13 12 12
19 16 16 18 15 12 18 21 22 18 14 12 17 19 16 11 8 9 7 7 5 7 8 11 11 11 17 15 14 13 15 12 9 8 13 11 15 13 13 13 14 14 13
20 19 20 17 17 15 16 15 14 14 12 13 15 20 16 10 10 8 8 9 4 6 11 14 13 9 26 13 15 15 14 17 13 8 7 10 14 13 12 14 15 16 15
20 22 19 17 15 14 14 9 5 8 15 20 24 22 15 14 14 13 10 12 14 11 12 11 10 15 26 27 19 18 16 15 13 14 14 12 14 13 13 15 16 18 17
15 16 18 17 15 13 12 10 10 12 9 11 12 20 16 14 15 15 15 15 14 12 15 9 15 12 39 49 25 18 18 16 17 15 13 15 14 17 16 15 19 19 21
17 15 15 12 14 12 13 13 11 9 10 11 9 14 14 14 12 15 14 13 16 12 13 14 26 13 24 36 22 20 19 17 17 18 17 16 15 19 20 18 19 22 23
17 15 11 7 7 9 9 8 9 7 7 6 6 9 18 15 15 17 19 15 14 12 11 15 21 24 18 24 19 13 19 16 16 16 17 15 17 13 13 21 20 23 24
18 16 12 9 6 6 7 1 8 10 6 5 9 10 10 13 12 14 18 21 15 16 19 18 17 14 21 29 21 17 19 15 19 17 17 14 15 18 16 15 22 25 25
16 12 12 11 8 9 10 5 8 7 5 5 14 12 5 15 17 14 16 21 20 21 22 22 15 18 18 27 12 5 6 15 24 23 21 20 19 19 20 23 17 25 28
10 9 10 7 7 12 4 9 6 6 8 9 9 10 9 11 11 14 16 18 18 21 21 24 22 16 23 23 4 3 3 14 23 30 25 18 18 17 15 17 22 19 24
9 10 10 8 9 12 9 6 6 8 10 7 8 7 1 5 11 14 18 18 19 18 21 22 22 22 18 16 12 7 4 5 8 18 18 14 16 18 17 17 19 24 26
13 13 12 9 10 10 9 6 3 9 10 5 3 2 9 8 10 10 13 14 17 17 18 19 19 20 18 17 11 18 23 11 3 1 5 12 13 11 16 18 18 21 26
13 11 12 12 10 7 7 6 4 7 11 6 6 9 9 10 3 7 10 12 15 15 16 16 16 18 18 19 16 10 14 17 12 6 1 3 7 10 15 15 19 22 21
11 9 10 13 11 9 6 5 2 3 5 7 8 10 12 8 12 17 11 12 14 14 14 14 12 14 14 15 15 14 15 8 6 6 3 3 4 6 4 7 18 13 22

GFSSE_925_spd_027.txt.gz
Wind_Speed
21 24 20 19 19 20 19 18 16 15 16 16 17 18 19 19 18 17 15 15 13 11 9 8 8 10 9 10 13 13 13 14 14 17 19 20 18 17 19 18 18 18 18
34 26 22 21 20 20 19 18 16 15 15 15 16 16 16 16 16 16 15 13 11 9 9 7 7 8 9 9 12 13 12 13 15 17 18 17 15 12 15 14 17 18 17
33 27 23 22 20 19 18 17 16 15 15 15 15 15 14 13 14 14 14 12 11 8 7 8 7 8 9 8 10 12 13 12 13 16 15 17 16 17 20 16 17 16 16
33 27 24 22 21 19 17 16 15 15 15 15 15 14 13 12 12 12 11 10 8 8 7 8 7 9 9 9 10 11 13 13 12 13 12 15 14 16 16 16 16 16 15
27 26 23 21 20 18 17 16 14 14 15 13 13 12 10 10 10 10 10 8 7 7 7 7 8 8 9 11 12 10 11 14 11 11 13 13 13 13 13 15 15 14 14
27 24 21 19 17 17 17 16 14 14 14 13 13 12 10 10 9 8 8 7 6 5 6 6 7 9 10 11 12 11 12 13 12 10 10 16 13 14 15 15 14 15 13
26 25 21 18 16 16 16 15 14 14 14 13 12 11 10 9 8 7 6 6 6 6 5 5 6 7 9 10 11 13 11 10 9 7 9 19 14 13 16 14 14 13 12
31 28 23 18 17 16 15 14 14 13 13 12 11 11 10 8 8 7 6 6 6 5 5 5 4 5 8 8 10 11 10 7 6 6 10 18 12 13 15 14 13 12 12
28 28 24 21 18 16 15 13 12 12 12 11 12 11 10 9 8 7 6 6 5 5 5 5 4 4 6 7 9 9 9 9 7 3 12 12 12 14 14 13 13 13 13
24 25 23 20 18 15 15 14 12 10 11 12 10 8 9 6 6 6 6 5 5 6 5 5 6 6 6 7 7 8 7 9 7 5 11 14 11 11 14 14 14 13 12
21 23 22 18 14 12 12 13 13 12 10 10 11 9 9 8 8 10 9 8 6 6 7 7 7 7 7 8 8 7 9 9 7 9 5 17 14 12 14 14 14 14 13
27 27 22 19 16 14 12 12 13 14 13 11 10 9 7 7 8 14 11 10 8 7 7 8 8 9 9 8 9 10 11 11 7 12 8 16 13 12 15 14 14 15 14
29 27 25 21 18 18 16 14 12 12 11 10 9 9 5 2 7 9 14 12 9 8 7 8 8 8 8 10 11 10 12 13 12 14 10 16 16 15 16 16 15 15 15
25 26 24 24 22 21 19 16 13 10 12 15 15 14 9 8 13 12 10 13 9 7 9 12 13 12 12 13 11 13 12 11 14 13 15 14 13 18 18 18 18 17 16
22 26 27 25 24 19 18 19 18 18 18 18 14 16 7 10 14 14 14 12 5 11 12 13 16 16 17 9 14 12 14 16 17 12 17 18 15 18 18 20 21 19 18
26 27 25 23 19 17 15 17 15 19 16 21 18 12 11 15 18 16 16 12 12 9 13 16 18 21 20 21 14 12 14 19 20 17 11 16 14 16 19 21 21 21 21
27 26 23 17 15 16 13 11 8 11 13 13 19 11 16 15 23 17 17 15 17 18 17 17 14 16 22 24 23 17 18 18 20 20 19 17 18 17 21 23 21 21 22
24 24 21 15 15 9 4 6 7 11 11 8 10 8 14 16 17 16 15 15 13 17 15 16 16 17 17 19 25 16 19 20 21 23 20 19 19 20 23 25 22 22 24
25 26 22 16 14 8 10 11 7 7 10 1 7 7 12 15 14 14 17 17 13 14 20 17 17 20 21 15 16 19 18 22 23 22 22 22 21 22 21 27 27 24 24
24 23 20 16 11 12 10 9 5 5 8 8 4 6 5 8 15 10 12 15 17 15 16 16 18 21 27 23 19 20 23 27 25 27 24 25 23 22 24 21 22 29 27
22 20 13 14 10 12 15 7 6 6 6 9 9 11 10 12 9 10 15 17 18 18 18 19 21 20 22 23 13 10 18 33 26 30 28 27 23 22 24 26 23 23 27
18 13 14 14 9 12 9 7 7 5 5 7 9 9 9 10 10 9 11 14 15 18 17 18 20 18 18 17 7 6 4 11 23 28 30 26 25 21 21 23 24 24 22
15 14 13 8 13 13 9 6 7 7 6 6 6 6 4 6 9 12 10 12 13 15 17 18 16 17 19 17 23 13 3 4 2 8 27 27 20 20 19 18 18 21 23
15 15 12 7 10 14 13 12 6 2 4 4 4 4 6 9 11 5 14 12 12 13 15 16 15 15 17 23 16 19 19 8 3 2 5 15 16 16 18 20 17 16 20
16 18 17 11 13 12 10 6 3 1 6 5 6 8 6 9 8 13 11 11 12 12 12 12 12 13 15 18 20 13 17 19 14 3 3 4 10 15 17 16 16 14 13
19 21 17 15 14 12 7 5 3 3 3 4 8 9 12 12 14 17 13 12 11 12 13 8 8 9 10 16 15 16 14 5 3 4 2 3 1 2 5 2 6 12 9

GFSSE_925_spd_030.txt.gz
Wind_Speed
26 21 18 19 19 19 18 18 19 20 20 21 22 20 18 17 18 20 19 17 16 14 13 11 10 10 12 14 13 15 15 16 19 19 21 20 19 18 20 19 17 18 18
30 22 19 20 20 20 18 17 18 20 19 19 20 18 17 16 16 16 16 14 13 12 11 10 9 9 10 14 13 14 16 17 19 20 19 18 16 16 16 19 17 17 17
29 24 23 22 21 21 19 18 18 18 18 18 18 16 15 14 15 14 12 12 10 10 8 9 9 10 10 13 13 14 14 18 18 18 18 17 14 13 16 17 18 16 16
31 27 24 23 22 21 19 18 17 17 17 18 17 16 14 14 14 13 12 10 9 8 7 7 9 10 10 12 15 13 13 16 18 15 17 17 16 16 15 15 18 18 17
30 27 24 22 21 20 18 17 16 17 17 16 15 14 13 13 12 11 10 9 8 7 6 6 8 9 10 12 14 13 13 16 17 16 18 15 16 15 14 15 16 16 16
31 28 25 23 20 19 18 16 16 16 16 15 14 13 13 12 10 9 9 8 7 7 7 6 6 8 9 12 13 14 13 11 12 16 11 13 15 16 16 14 15 15 16
31 28 25 22 21 20 18 17 16 15 14 14 14 13 12 11 8 7 6 6 7 6 6 7 7 5 7 12 13 12 13 12 10 6 13 15 15 15 17 16 15 14 14
32 27 24 21 20 19 18 16 16 15 14 13 12 12 12 10 9 7 6 6 6 7 6 7 7 7 7 9 11 11 11 10 9 7 9 15 14 16 16 17 16 13 14
31 28 24 22 20 18 17 16 16 15 14 13 12 11 11 10 8 7 6 6 6 6 6 6 6 7 8 8 10 11 11 9 6 6 12 18 12 14 16 16 16 14 14
31 28 26 23 21 19 17 16 16 15 14 14 12 10 9 8 7 5 5 5 5 6 6 6 6 6 8 11 12 12 12 9 9 6 14 17 14 14 16 15 15 15 14
25 26 25 23 21 19 18 16 14 13 13 14 11 9 8 6 6 4 4 4 4 5 6 7 7 7 8 9 11 12 12 10 9 9 13 16 16 15 17 17 16 16 15
26 26 25 23 21 19 18 17 16 14 12 12 12 10 9 8 5 5 5 6 8 7 7 7 7 7 7 8 9 9 11 10 12 10 11 16 17 16 16 17 17 16 16
28 26 25 23 21 20 18 17 16 15 12 10 9 10 8 9 8 5 7 8 8 10 9 8 9 9 10 10 9 10 9 10 12 9 12 14 17 15 16 17 17 17 17
28 28 26 23 21 19 16 16 15 15 14 11 9 12 11 12 11 6 7 8 11 11 11 11 10 11 12 13 12 11 8 11 14 15 11 17 16 16 17 17 18 19 18
29 28 28 26 24 21 16 15 14 14 16 12 17 14 14 13 10 5 7 7 14 14 16 15 13 15 14 15 16 14 13 12 14 15 10 16 19 14 17 18 20 20 20
30 29 28 26 23 16 15 11 12 14 15 16 16 14 17 13 13 10 11 13 17 14 16 15 15 16 18 18 15 19 17 16 15 17 17 14 20 17 19 19 21 22 22
27 27 28 20 17 16 15 12 7 7 8 13 15 18 18 19 18 14 16 17 17 19 18 18 19 19 20 24 23 18 18 14 16 18 18 18 16 17 19 21 21 23 23
27 27 26 23 16 16 15 14 6 6 6 9 11 14 18 17 16 13 16 18 14 15 17 19 17 17 17 18 19 22 23 15 17 19 18 19 21 22 22 24 24 23 24
29 28 27 21 14 18 14 14 9 5 4 7 9 11 14 11 12 13 16 16 14 15 15 17 18 19 20 20 17 15 16 17 15 17 19 22 23 25 25 25 26 27 25
28 28 24 16 13 12 16 12 9 5 5 9 8 7 6 8 12 18 12 12 12 14 15 17 18 17 19 18 14 13 14 17 16 19 23 24 26 27 26 27 25 27 30
27 26 20 14 15 21 17 10 10 9 5 2 9 7 6 6 4 8 8 7 9 12 13 16 22 18 19 20 15 13 17 18 19 24 30 30 29 24 25 26 29 24 23
31 22 14 14 16 16 13 7 9 6 1 3 6 4 3 4 5 7 8 11 11 11 12 13 14 18 20 17 7 3 3 6 15 20 25 27 29 26 24 23 25 26 27
23 19 16 15 12 17 11 11 9 4 3 2 4 3 5 5 6 8 9 11 12 11 13 13 12 13 14 18 21 7 2 3 3 11 19 28 31 27 21 21 20 21 23
20 19 15 13 13 15 13 9 4 2 1 3 6 7 7 10 9 8 11 8 9 11 11 11 11 11 12 16 18 24 11 7 3 3 4 10 18 21 18 18 17 16 17
22 19 16 13 14 13 11 7 2 3 8 7 8 9 7 8 9 10 8 7 6 9 11 11 9 10 12 16 17 10 24 23 18 3 2 7 7 13 14 12 12 13 15
20 19 15 13 16 12 8 6 5 5 5 7 9 10 8 9 12 13 10 9 8 7 7 7 4 6 8 11 15 16 14 5 9 5 2 5 4 1 3 1 3 7 12

GFSSE_925_spd_033.txt.gz
Wind_Speed
22 21 18 17 18 17 18 18 19 19 20 20 21 20 20 20 19 19 17 14 14 13 12 11 10 10 10 10 11 13 13 15 16 17 17 17 18 17 16 18 18 18 17
28 22 20 20 20 19 18 18 18 18 19 20 20 18 18 19 18 16 15 13 11 11 11 9 11 10 11 11 11 12 13 15 17 17 16 17 18 17 15 15 17 18 16
28 23 22 22 21 19 17 18 19 18 18 18 17 17 17 16 15 14 12 10 9 8 10 9 9 10 11 11 12 13 13 15 16 16 15 14 17 15 14 12 14 15 15
28 25 24 23 22 20 18 17 18 18 18 17 16 15 15 14 13 12 11 9 9 7 7 8 9 9 11 11 13 13 15 15 15 15 15 14 13 14 14 12 13 13 14
28 26 26 24 23 20 19 17 17 17 17 16 15 14 14 15 14 11 9 8 7 7 7 6 8 9 9 11 12 13 15 16 13 16 15 15 17 15 15 15 11 13 14
28 26 26 24 23 21 19 18 17 17 16 15 14 13 12 12 12 11 8 7 6 6 6 5 6 7 10 12 12 12 16 15 13 15 12 13 14 14 16 15 13 12 11
28 26 24 23 22 20 19 18 18 17 17 15 13 12 11 10 9 9 7 7 6 5 5 5 6 9 11 13 12 12 12 12 14 12 10 12 13 13 14 15 14 13 11
30 27 24 22 20 19 18 17 17 16 15 15 14 13 11 9 8 7 7 6 6 6 4 3 6 8 12 12 12 12 11 11 9 7 12 13 13 14 14 14 14 13 13
28 27 25 23 22 19 17 17 16 16 15 14 14 14 12 10 8 6 5 5 5 5 5 5 4 6 10 10 11 11 11 9 8 8 10 14 13 14 15 14 15 13 13
27 26 25 23 23 21 19 17 16 15 14 13 12 12 12 10 8 7 6 6 5 4 4 4 3 4 8 9 10 11 11 8 6 7 11 17 14 14 15 17 16 14 14
25 25 24 23 22 21 19 17 15 14 13 12 11 10 10 9 9 7 5 5 5 5 4 4 5 5 5 8 10 11 11 11 9 7 10 14 15 14 16 16 17 16 15
24 26 24 23 22 20 19 18 17 14 14 13 12 12 11 9 8 6 6 5 6 4 5 5 6 6 7 9 11 12 12 12 12 9 10 12 15 16 16 16 16 16 16
29 26 26 24 22 21 20 19 18 17 16 15 13 12 11 10 10 8 10 10 8 7 6 7 7 9 9 9 11 12 12 14 15 14 11 11 16 17 16 15 16 16 16
26 27 26 25 23 22 20 20 17 17 15 13 13 13 12 11 11 9 8 10 12 11 9 9 10 11 12 12 12 13 14 14 13 15 12 12 13 18 17 16 17 17 16
27 28 28 25 24 22 21 20 19 17 15 14 13 12 15 11 13 11 12 12 11 12 12 12 12 13 13 13 15 16 15 14 15 16 15 13 16 18 17 17 18 19 18
29 29 27 27 24 21 20 18 17 17 16 17 13 12 16 14 14 14 13 13 12 13 13 14 14 14 15 16 16 19 17 15 14 15 16 13 14 18 19 18 19 19 19
33 31 28 28 25 24 18 13 16 15 14 17 15 16 17 16 17 14 16 15 13 13 14 14 16 16 18 20 21 19 18 18 18 19 18 19 17 17 20 19 21 20 20
28 29 27 26 24 15 14 14 10 9 9 9 9 9 14 15 19 17 17 20 16 15 16 20 20 19 19 20 20 23 25 22 20 18 21 19 18 18 20 18 19 21 20
29 26 26 18 15 16 18 13 10 5 7 7 3 7 8 11 12 16 14 15 14 13 15 15 16 20 19 18 18 17 17 20 28 22 21 20 20 20 21 21 22 22 23
24 23 24 15 9 11 12 11 11 8 5 6 1 4 5 5 8 10 15 14 11 11 12 15 17 17 16 17 15 16 15 15 17 20 19 19 18 19 21 21 22 24 24
20 21 21 12 12 14 11 11 7 7 0 2 3 5 6 6 7 8 9 9 9 10 12 12 14 18 18 17 10 11 17 18 17 18 18 20 20 19 19 21 23 24 23
21 21 18 11 13 12 12 6 3 3 3 6 7 4 2 3 2 4 7 9 8 10 10 11 11 13 13 15 7 4 1 2 10 15 17 17 19 19 20 21 21 21 22
24 21 12 9 15 15 8 11 9 7 4 3 5 3 3 3 3 4 7 10 10 8 10 10 11 13 13 12 18 5 2 3 2 4 10 10 13 18 18 21 18 17 21
24 16 13 13 15 14 12 11 6 2 1 3 5 7 9 6 5 6 8 8 8 8 9 9 9 12 13 12 14 19 5 3 2 3 2 8 10 14 18 18 14 16 16
22 18 15 14 15 12 9 5 3 5 7 8 7 7 6 6 7 8 7 7 8 7 8 9 9 10 12 12 12 8 18 6 3 3 3 5 11 7 2 8 11 11 13
21 19 17 15 15 12 9 3 4 5 7 7 7 7 6 8 10 9 9 7 7 7 6 5 3 7 9 11 13 13 9 6 7 8 1 0 3 6 6 4 1 5 7

GFSSE_925_spd_036.txt.gz
Wind_Speed
23 22 17 16 16 18 19 20 20 21 21 21 20 20 21 18 17 16 14 13 12 10 11 10 9 11 10 11 12 13 13 13 13 14 15 15 16 16 16 15 14 14 15
31 24 20 17 16 17 18 19 19 19 20 20 20 20 21 20 17 16 14 12 10 10 9 10 10 10 11 11 11 11 12 13 14 14 15 15 14 15 16 14 15 15 14
28 24 22 20 17 17 18 18 19 19 19 19 19 18 18 17 16 14 12 11 9 9 8 11 10 10 11 11 13 13 13 14 15 14 15 17 15 13 14 14 14 13 14
26 24 23 22 19 17 17 18 18 19 18 17 17 17 17 16 14 12 11 9 8 8 8 8 9 9 11 11 12 13 14 14 13 13 14 17 13 13 13 14 14 12 11
25 23 23 22 20 18 17 17 17 17 18 16 16 16 14 14 13 11 10 9 9 7 7 9 11 9 11 12 12 13 14 13 13 13 12 13 14 12 12 12 14 14 10
23 23 23 21 19 17 17 16 16 15 16 15 15 14 14 13 12 10 9 7 8 8 7 6 8 10 11 11 12 13 13 13 14 13 12 13 12 12 12 12 13 13 12
24 24 21 21 19 18 17 16 15 15 15 13 13 13 13 13 11 9 8 7 6 6 6 6 7 8 11 12 12 12 14 12 12 11 11 11 10 12 11 13 11 11 11
25 24 22 20 19 18 16 16 15 14 13 12 11 12 12 10 10 9 8 6 6 5 6 5 5 7 10 11 11 12 12 12 11 8 7 10 10 10 12 12 12 12 11
24 23 22 21 19 17 16 16 15 14 13 12 11 10 11 10 9 8 8 7 6 4 4 4 5 7 10 12 12 12 10 9 8 7 7 11 10 11 11 12 12 11 12
22 22 22 20 20 19 17 16 16 14 14 13 12 10 9 8 8 7 8 8 7 5 4 4 4 6 8 10 11 11 10 8 9 7 8 12 11 11 11 11 11 10 10
20 21 21 21 20 20 19 17 16 16 14 13 12 11 10 10 9 7 7 6 6 5 4 5 5 6 7 9 11 12 12 11 8 6 7 12 14 10 12 12 12 11 11
20 23 23 23 22 21 20 19 18 16 16 15 14 13 12 10 9 8 6 6 6 5 5 6 7 7 7 9 10 10 13 12 11 9 7 11 15 13 13 13 13 13 12
28 26 25 24 22 23 22 21 19 18 17 16 15 13 12 10 10 9 8 9 8 7 6 6 7 7 8 9 11 12 13 14 14 13 10 10 14 16 14 14 14 15 15
28 29 26 25 24 22 21 21 21 20 19 16 15 13 11 12 11 9 7 7 10 9 9 8 9 9 9 10 10 12 14 14 15 15 15 12 12 16 17 15 14 15 15
27 29 28 27 25 23 21 20 19 18 13 13 13 11 11 13 13 11 8 9 10 11 11 11 11 10 10 10 11 12 13 15 15 16 17 16 14 14 17 15 13 17 17
28 29 28 26 23 19 13 14 16 16 16 15 14 12 15 16 14 11 11 10 11 11 12 13 14 13 13 13 13 13 15 15 15 15 16 17 13 15 16 19 16 17 19
30 27 27 25 19 9 19 14 16 14 14 15 17 15 15 16 14 12 11 12 12 13 13 15 17 16 15 15 17 17 18 18 17 15 15 16 17 14 14 18 19 19 20
27 26 24 17 16 20 18 14 11 11 13 11 14 16 15 15 15 15 15 14 13 15 13 13 12 16 17 18 20 19 20 21 18 17 17 17 17 18 18 17 20 18 20
27 25 22 14 22 19 20 13 10 7 6 4 9 10 8 9 11 11 11 11 8 12 14 14 15 15 16 18 19 16 16 18 21 21 24 17 19 19 18 17 18 18 19
21 20 18 12 11 13 11 12 12 5 1 1 5 1 1 1 1 4 6 9 9 10 11 12 13 14 15 15 13 16 16 17 18 19 21 21 18 19 19 18 17 19 19
16 17 17 12 8 9 8 7 8 7 3 3 6 4 1 1 3 2 3 5 8 10 10 11 13 13 16 15 10 11 15 17 17 17 17 18 17 18 17 16 16 17 17
16 15 17 11 6 7 6 6 6 10 5 3 5 4 4 2 1 2 4 6 9 9 11 12 12 12 10 11 7 3 2 3 13 18 16 17 18 20 20 18 17 15 15
16 19 17 10 13 13 9 8 10 10 6 1 7 6 4 3 2 3 4 6 9 9 8 10 12 14 11 8 16 4 1 3 1 3 6 13 13 15 15 15 16 14 13
7 15 12 13 18 15 15 11 2 4 5 5 7 8 6 4 4 5 6 6 7 7 8 8 10 13 14 12 9 18 5 1 2 1 4 7 6 2 8 13 13 11 12
30 14 11 16 18 16 13 9 5 6 8 8 6 4 3 5 7 8 7 6 5 6 7 8 8 11 13 13 13 6 18 7 4 2 2 1 5 10 6 3 4 6 7
26 24 15 17 19 17 14 8 7 7 8 8 6 3 4 6 9 9 9 8 6 6 6 5 6 6 9 12 11 11 9 6 8 4 2 2 2 7 8 7 5 3 1

GFSSE_925_spd_042.txt.gz
Wind_Speed
16 16 17 18 16 17 17 16 17 16 16 18 18 17 17 16 15 13 13 11 10 9 8 7 7 7 8 9 10 11 9 10 10 11 11 11 10 13 12 14 14 11 12
20 18 18 18 16 17 17 16 16 16 16 17 18 17 15 15 14 12 11 10 9 6 5 7 7 8 9 9 9 10 10 9 10 11 12 11 10 10 11 9 7 12 13
19 18 16 16 16 14 15 16 16 15 14 15 17 17 15 14 13 12 10 11 8 4 7 7 7 8 7 9 8 9 10 9 10 10 10 9 9 10 10 8 9 10 12
18 17 15 16 15 15 15 16 15 14 14 14 16 16 14 13 11 10 9 10 9 9 6 8 8 8 8 9 9 10 10 10 11 11 7 9 9 8 9 8 10 9 8
16 16 15 15 14 14 15 15 15 14 14 14 14 14 13 12 10 9 9 9 10 9 7 8 8 9 9 9 9 11 10 10 10 7 6 6 7 6 10 9 8 8 8
14 13 14 13 13 12 13 14 14 14 13 13 12 12 12 11 10 8 8 8 7 8 8 6 8 8 9 10 9 10 10 9 9 5 6 6 3 6 7 8 7 8 8
14 13 13 13 12 12 11 10 11 11 11 10 10 10 10 10 9 8 8 7 7 7 7 9 9 9 10 10 10 11 9 9 6 6 6 5 4 4 6 8 8 6 8
13 13 14 13 12 12 12 11 10 10 10 9 8 9 9 8 7 7 6 6 6 6 6 8 10 9 11 11 12 12 10 11 7 6 5 5 5 6 8 7 6 7 6
13 12 12 12 11 11 11 11 11 10 10 9 9 9 9 9 8 7 7 6 6 6 6 6 7 9 12 12 11 14 13 11 7 5 5 5 6 7 8 8 6 7 7
13 13 13 13 12 11 9 11 11 11 10 9 10 10 10 9 8 7 7 7 7 6 6 6 7 8 12 13 12 13 12 11 9 8 6 6 7 8 9 10 9 9 8
14 14 13 13 11 11 9 9 9 9 9 9 8 9 8 8 7 7 7 6 8 7 6 6 6 9 10 11 12 12 11 10 11 8 6 10 10 9 10 11 11 10 9
16 15 14 13 12 11 10 10 10 10 8 8 9 9 9 8 7 7 5 6 6 7 7 8 8 9 10 11 10 11 11 10 9 7 5 9 11 12 10 13 12 12 11
15 13 12 13 12 12 10 10 12 10 10 9 9 10 9 9 8 7 6 5 6 7 9 7 7 9 10 10 11 12 12 12 12 10 8 9 10 13 13 12 14 14 14
15 13 11 11 10 11 10 11 11 12 10 8 8 9 8 9 8 9 8 6 8 9 7 7 9 7 8 9 9 10 12 12 12 11 10 12 11 12 14 13 14 15 15
14 14 12 11 11 11 12 10 11 10 10 8 7 9 12 14 12 11 11 10 8 9 9 9 8 9 10 9 10 11 12 12 12 11 11 12 14 15 14 14 17 18 17
12 10 9 8 11 12 14 13 13 14 13 12 11 12 13 18 16 14 13 11 9 10 10 10 9 10 10 10 11 12 11 12 12 13 13 12 14 18 16 15 18 19 19
13 11 11 12 16 14 13 13 13 15 14 16 19 16 17 20 19 17 14 12 10 11 9 10 9 10 12 12 12 11 12 13 13 14 15 14 13 14 20 17 18 19 19
12 12 14 15 9 14 15 15 11 13 13 11 13 18 18 20 17 14 13 13 12 10 11 10 10 11 12 14 12 12 14 14 15 16 17 16 12 13 13 17 18 18 21
9 7 6 21 17 11 14 11 8 11 9 5 14 18 21 16 14 15 15 13 12 12 11 11 11 12 11 12 13 13 14 15 15 16 19 19 17 13 14 13 14 18 19
19 12 13 27 17 17 8 10 10 6 11 9 6 10 8 9 8 10 10 10 8 10 11 10 11 12 12 12 12 14 14 15 16 14 16 19 19 17 15 14 14 14 17
18 19 20 19 31 17 11 8 7 14 10 6 4 4 4 4 5 6 7 8 9 9 10 9 11 12 12 10 9 15 18 17 17 15 14 16 16 16 15 15 14 13 11
19 17 12 18 12 12 8 4 6 13 12 11 2 0 1 3 2 3 4 6 8 8 9 11 12 12 12 9 9 10 8 13 16 17 15 13 13 13 14 14 12 12 12
14 17 20 15 7 9 9 8 10 8 6 3 3 4 3 2 0 2 4 6 7 8 11 9 11 11 13 9 12 8 4 5 6 7 13 10 6 8 8 11 12 11 9
10 12 13 9 9 10 9 8 9 6 4 2 5 5 3 2 2 3 5 6 8 9 8 9 9 11 11 10 8 12 13 6 3 4 9 7 3 1 4 7 9 9 7
10 11 14 13 12 10 10 7 5 3 5 6 5 4 2 2 4 4 4 5 7 7 6 7 7 7 8 9 9 5 9 11 10 4 4 9 9 9 9 3 3 3 3
10 12 13 14 13 12 10 9 5 5 6 5 4 3 1 2 3 5 5 4 4 4 3 3 4 4 4 5 6 9 9 6 12 9 4 6 7 8 9 10 8 7 7

GFSSE_925_spd_045.txt.gz
Wind_Speed
20 17 16 13 12 12 12 14 12 13 13 14 14 13 13 12 13 12 12 10 8 7 6 7 6 6 7 7 9 9 9 10 10 11 10 9 12 11 10 10 12 10 11
21 18 18 14 13 12 12 12 12 13 12 13 12 13 12 11 12 11 9 8 7 6 5 5 6 7 8 8 9 9 9 9 10 11 10 13 11 10 9 7 12 13 12
20 18 16 15 13 11 12 12 12 12 13 13 13 12 12 11 11 11 9 5 6 6 5 4 6 7 7 8 8 8 8 9 11 12 15 12 9 8 8 9 9 12 10
19 17 15 15 13 12 11 12 12 11 12 13 13 12 11 11 11 10 8 6 5 4 4 5 6 7 7 6 8 8 8 8 10 7 6 11 11 8 7 8 9 9 8
16 19 16 15 13 12 11 11 11 11 11 13 12 12 11 9 9 8 7 5 4 4 3 5 6 6 7 8 8 8 8 7 7 3 3 9 7 9 8 8 7 8 6
20 19 16 15 13 13 11 10 10 10 10 10 10 10 9 9 8 6 6 6 6 7 5 5 4 7 7 8 8 8 8 9 8 9 4 6 11 11 8 8 6 6 6
22 17 15 14 13 12 13 12 11 9 9 10 9 8 8 7 6 6 6 6 6 6 7 7 6 8 8 9 9 10 9 8 5 6 9 6 9 5 7 7 6 6 6
19 18 15 12 12 12 12 11 11 11 9 8 8 7 7 7 7 6 6 5 5 5 4 6 8 8 9 9 9 10 9 10 7 7 5 7 4 5 7 8 7 6 6
14 18 14 12 10 10 10 10 10 10 9 7 7 8 7 7 6 6 6 6 6 6 5 5 6 8 10 10 10 11 10 11 7 6 4 8 6 8 10 8 8 7 7
14 14 17 15 12 11 9 9 9 8 9 8 8 7 7 7 8 7 6 7 6 5 5 4 6 7 10 11 10 12 12 10 7 7 6 7 4 5 10 10 8 9 7
12 13 14 12 11 11 10 10 9 9 9 9 8 8 7 7 10 10 9 8 7 6 6 5 6 8 10 11 11 11 12 11 11 7 6 6 6 7 9 10 10 9 8
14 13 15 12 14 8 11 10 9 10 9 10 9 10 9 8 8 3 7 6 8 8 8 8 7 8 10 11 12 11 11 12 10 10 12 11 9 10 9 11 10 11 9
14 15 15 12 11 12 11 10 9 10 13 10 6 8 11 6 2 3 2 5 8 9 9 7 9 8 11 12 14 11 12 15 15 13 14 13 7 11 12 11 13 12 12
16 13 13 10 11 10 6 9 11 10 5 9 9 6 5 2 1 6 7 8 9 12 6 15 15 9 11 16 10 13 11 14 12 11 12 9 8 11 13 13 13 14 14
14 10 10 10 11 11 12 8 8 9 3 5 10 8 8 8 7 6 11 12 13 10 9 10 8 8 8 9 11 14 13 14 14 13 9 10 9 13 14 14 15 16 15
14 11 10 11 11 11 11 13 10 8 10 12 11 10 11 11 9 7 13 17 22 18 13 12 11 9 10 12 13 13 12 12 14 15 12 11 12 12 16 16 15 17 16
14 12 2 8 9 10 10 10 11 10 13 14 11 11 10 13 12 12 19 21 23 13 8 9 11 12 12 14 15 14 14 15 15 13 15 15 12 15 14 19 17 17 17
17 29 5 12 1 3 8 9 11 9 10 11 12 12 17 13 16 17 20 20 18 8 8 10 12 11 14 14 16 14 16 19 17 17 16 17 15 16 18 14 18 17 17
28 5 11 15 12 4 9 9 8 7 9 11 10 13 12 15 14 20 19 18 15 15 12 12 14 13 12 13 15 17 17 17 19 18 20 18 18 17 11 17 13 15 16
17 15 13 11 9 6 7 6 4 6 8 8 9 10 9 13 17 18 18 15 12 14 11 12 11 11 13 17 20 15 18 18 19 19 18 17 21 22 17 13 14 16 15
6 10 6 6 2 3 3 5 1 2 4 9 9 6 6 11 11 11 12 11 10 10 9 9 11 14 14 13 10 15 16 21 21 19 18 15 16 20 20 17 17 18 15
14 11 8 10 4 5 2 2 2 6 3 4 4 5 4 7 7 4 5 6 7 7 10 10 11 13 12 11 9 10 5 14 21 19 21 17 15 15 18 19 18 14 11
17 9 10 12 4 5 6 8 8 7 3 6 5 4 4 3 2 2 3 5 6 8 13 11 9 12 14 11 13 9 3 3 6 14 21 13 1 7 14 12 9 8 16
14 13 12 12 11 9 7 6 7 3 3 1 1 1 1 1 3 4 5 7 8 11 12 8 7 9 8 12 9 14 16 8 3 2 2 6 2 1 6 9 8 6 2
9 11 12 11 12 11 8 5 6 3 3 2 1 2 3 2 2 4 4 5 6 6 8 8 8 8 9 10 11 8 9 13 13 4 2 5 9 6 4 5 8 8 7
9 11 14 13 13 13 10 6 1 2 4 2 1 3 6 3 4 4 5 5 3 5 5 5 5 5 5 6 8 8 9 5 8 10 4 11 11 7 11 12 12 11 14

GFSSE_925_spd_048.txt.gz
Wind_Speed
21 19 17 16 15 14 13 13 11 13 14 14 14 14 13 13 13 12 11 10 11 10 8 8 7 7 8 10 10 9 9 9 13 13 13 15 15 13 12 9 12 13 13
24 19 18 17 16 15 13 12 12 12 14 13 14 12 11 10 9 10 10 10 11 9 7 6 7 8 9 10 10 9 9 10 11 12 16 15 14 12 11 14 15 13 12
23 20 18 17 16 15 14 12 12 11 14 14 14 13 10 8 8 7 7 6 7 8 7 5 6 7 8 8 8 8 10 9 8 9 14 14 13 11 11 11 13 12 11
20 20 17 17 16 15 14 13 13 13 12 13 12 12 10 8 6 6 7 7 8 8 7 5 5 6 7 8 8 8 9 9 9 9 5 11 14 11 11 12 10 12 12
25 20 18 17 15 14 14 14 12 12 12 13 12 11 10 8 6 3 5 3 2 4 7 6 5 5 6 7 8 8 9 10 7 4 6 11 14 11 9 10 9 12 8
26 21 20 17 15 14 14 13 12 12 13 12 12 11 10 8 6 4 2 2 1 2 2 4 5 6 7 7 8 7 9 9 7 5 7 11 10 10 11 9 10 7 8
22 21 20 16 14 13 13 12 12 12 12 11 11 11 10 8 7 5 4 3 2 2 4 4 5 7 7 7 7 7 8 9 7 6 10 4 7 8 9 8 7 6 7
24 21 20 16 14 13 12 11 11 11 12 12 11 10 10 9 8 6 5 3 2 2 3 6 7 7 8 8 8 7 9 8 5 8 15 7 5 7 8 9 7 8 6
24 23 18 14 14 14 13 12 11 10 10 11 11 10 10 9 8 7 5 5 4 3 4 5 7 8 9 9 8 9 10 8 5 4 7 9 6 6 9 9 8 7 7
22 22 20 15 12 12 12 13 10 9 9 9 9 12 8 7 8 8 7 6 5 4 3 3 4 6 9 11 10 10 9 9 6 1 2 10 8 6 9 9 8 7 7
17 19 19 15 12 13 14 14 14 11 10 9 9 10 11 11 9 7 6 9 6 6 5 5 5 7 8 11 10 11 11 11 9 7 4 7 6 4 7 10 9 9 7
24 25 22 18 13 15 15 16 15 14 11 10 11 11 10 3 8 1 8 8 8 7 7 7 6 6 9 10 13 12 13 11 13 14 9 9 8 7 7 10 11 10 9
14 26 18 18 17 16 12 10 13 16 11 10 8 12 8 6 13 29 14 6 5 4 4 6 6 7 11 14 15 13 13 13 16 12 13 14 11 11 9 9 11 11 10
13 22 16 13 16 12 7 11 11 15 10 10 10 10 7 6 14 20 14 7 5 5 5 8 12 14 16 16 16 15 16 16 12 10 14 19 16 12 11 12 12 12 11
14 21 15 12 10 9 9 6 3 5 7 22 16 10 7 7 10 6 6 6 6 4 6 10 11 16 13 17 16 15 18 16 14 9 7 13 14 9 12 12 13 14 13
50 38 23 6 7 10 10 10 7 7 9 11 10 9 7 7 8 7 7 7 6 10 14 19 19 18 18 13 13 13 14 14 12 12 5 14 14 9 9 15 15 15 15
28 30 22 12 7 7 9 8 6 5 6 8 7 6 4 8 11 11 9 10 9 13 20 25 24 18 16 12 11 14 13 16 14 13 16 13 12 12 12 13 18 17 14
8 12 18 10 3 3 3 7 8 7 5 9 7 7 9 12 12 13 14 16 10 15 23 35 21 12 14 14 14 15 15 19 16 19 14 14 16 15 14 15 16 20 16
13 13 19 7 2 3 4 4 2 7 7 7 7 8 11 13 16 10 14 17 14 15 13 29 14 11 13 13 15 19 21 20 16 21 22 19 19 19 17 15 18 15 19
20 7 12 4 9 7 3 5 3 5 5 5 5 5 7 7 11 14 17 17 14 14 12 12 13 12 13 14 13 15 18 20 20 20 21 22 20 23 23 18 15 10 20
15 10 4 6 8 7 4 4 7 4 10 4 3 2 5 7 9 10 12 10 12 11 11 10 11 9 11 12 7 12 12 17 21 21 23 23 20 23 20 21 18 16 14
7 9 3 6 9 12 7 7 10 11 8 11 7 3 3 5 5 7 7 6 7 7 8 9 10 12 11 11 6 4 3 8 21 24 21 16 22 17 20 18 16 12 9
4 5 3 7 5 11 9 13 13 11 8 4 1 2 3 4 7 7 6 6 7 8 9 9 10 9 11 12 12 9 3 3 4 11 21 23 12 7 10 5 3 9 12
6 6 5 6 8 11 13 12 9 6 10 6 4 4 3 3 5 7 6 8 8 9 12 9 7 7 9 11 8 15 19 11 2 3 2 10 2 4 2 3 4 4 2
9 9 8 10 8 10 6 10 7 4 5 8 7 3 4 2 1 5 7 6 6 7 8 7 8 10 9 10 11 11 10 16 13 6 1 6 16 12 8 9 9 9 11
8 13 10 11 10 10 10 8 5 8 7 6 4 3 4 4 4 5 7 7 6 5 6 6 6 6 8 9 9 9 10 4 7 4 1 7 10 13 14 15 15 17 15